Regional Weather Roundup
Issued by NWS Cleveland, OH

Home | Current Version | Previous Version | Text Only | Print | Product List | Glossary Off
Versions: 1 2 3 4 5 6 7 8 9 10 11 12 13 14 15 16 17 18 19 20 21 22 23 24 25 26 27 28 29 30 31 32 33 34 35 36 37 38 39 40 41 42 43 44 45 46 47 48 49 50

000
ASUS41 KCLE 260602
RWRCLE
OHIO REGIONAL WEATHER ROUNDUP
NATIONAL WEATHER SERVICE CLEVELAND, OH
200 AM EDT THU MAY 26 2016

NOTE: "FAIR" INDICATES FEW OR NO CLOUDS BELOW 12,000 FEET WITH NO
SIGNIFICANT WEATHER AND/OR OBSTRUCTIONS TO VISIBILITY.

OHZ001>008-015>018-024>027-034-035-043-044-260700-
   NORTHWEST OHIO

CITY           SKY/WX    TMP DP  RH WIND       PRES   REMARKS
DEFIANCE       CLOUDY    73  61  65 SW8       30.00S
FINDLAY        CLOUDY    68  59  73 S7        30.01R
TOLEDO EXPRESS CLOUDY    70  61  73 S6        30.00R
TOLEDO EXEC    CLOUDY    71  59  65 S9        30.01R
LIMA           CLOUDY    70  62  76 S8        30.03R
$$

OHZ009>014-019>023-028>033-038-089-260700-
   NORTHEAST OHIO

CITY           SKY/WX    TMP DP  RH WIND       PRES   REMARKS
CLE-HOPKINS    MOCLDY    73  56  54 S9        30.05F
CLE-LAKEFRONT  PTCLDY    73  56  54 SE8       30.02F
CUY CO. ARPT   NOT AVBL
LORAIN-ELYRIA  CLOUDY    68  57  68 S10       30.03F
ASHTABULA      CLOUDY    69  57  65 S5        30.07F
AKRON-CANTON   CLOUDY    66  56  70 S6        30.08S
WOOSTER        CLOUDY    65  57  75 S5        30.07F
MANSFIELD      CLOUDY    67  60  78 S8        30.06F
YOUNGSTOWN     CLOUDY    69  55  60 S6        30.08F
$$

OHZ042-051>053-060>062-070>072-077>081-260700-
  SOUTHWEST OHIO

CITY           SKY/WX    TMP DP  RH WIND       PRES   REMARKS
CINC-COVINGTON MOCLDY    68  63  84 SW3       30.07
CINC-LUNKEN    CLEAR     63  63 100 S5        30.07S
HAMILTON       CLEAR     65  63  93 CALM      30.06S
DAYTON         PTCLDY    69  62  78 SW12      30.06S
WRIGHT-PAT AFB PTCLDY    69  65  85 SW7       30.05S
DAYTON GENERAL PTCLDY    68  61  78 S5        30.05F
WILMINGTON     PTCLDY    66  62  87 S7        30.07S
$$

OHZ036-037-039>041-045>050-054>059-063>069-073>076-082>088-260700-
  CENTRAL AND SOUTHEAST OHIO

CITY           SKY/WX    TMP DP  RH WIND       PRES   REMARKS
COLUMBUS       MOCLDY    68  61  78 S5        30.06S
OSU AIRPORT    CLOUDY    68  62  81 S7        30.06
BOLTON FIELD   NOT AVBL
RICKENBACK AFB NOT AVBL
NEWARK         CLOUDY    64  59  83 CALM      30.06F
MARION           N/A    N/A N/A N/A MISG      30.05S
LANCASTER      MOCLDY    67  60  78 S5        30.07F
ZANESVILLE     CLOUDY    70  60  70 S6        30.07F
NEW PHILLY     CLOUDY    70  59  68 SE5       30.08F
$$




USA.gov is the U.S. government's official web portal to all federal, state and local government web resources and services.